Location: Newark
(40.4667°N, 5.6000°W)
Time: 17:17:25
(UTC+00:00)

Envisat - Visible Passes

Search period start: 22 October 2019 00:00
Search period end: 01 November 2019 00:00
Orbit: 764 x 766 km, 98.1° (Epoch: 22 October)

Date Brightness Start Highest point End Pass type
(mag) Time Alt. Az. Time Alt. Az. Time Alt. Az.
22 Oct 3.3 17:56:20 10° SE 18:01:09 46° ENE 18:06:00 10° N visible
22 Oct 5.6 19:36:41 10° SW 19:40:22 20° W 19:44:06 10° NW visible
23 Oct 6.2 06:06:49 10° NE 06:09:58 16° E 06:13:05 10° SE visible
23 Oct 4.2 18:58:32 10° S 19:03:23 45° W 19:08:15 10° NNW visible
24 Oct 2.9 18:21:30 10° SSE 18:26:34 81° ENE 18:31:40 10° N visible
24 Oct 6.2 20:04:50 10° WSW 20:06:10 11° W 20:07:31 10° WNW visible
25 Oct 5.2 19:24:51 10° SSW 19:29:01 26° W 19:33:14 10° NW visible
26 Oct 6.4 05:56:25 10° ENE 05:58:34 13° E 06:00:44 10° ESE visible
26 Oct 3.7 18:47:05 10° S 18:52:05 57° W 18:57:06 10° NNW visible
27 Oct 3.0 18:10:19 10° SSE 18:15:20 64° ENE 18:20:22 10° N visible
27 Oct 6.0 19:52:03 10° WSW 19:54:46 14° W 19:57:29 10° WNW visible
28 Oct 4.8 19:13:10 10° SSW 19:17:41 32° W 19:22:14 10° NNW visible
29 Oct 3.2 18:35:44 10° S 18:40:47 74° WSW 18:45:54 10° NNW visible
30 Oct 3.2 17:59:13 10° SE 18:04:06 50° ENE 18:09:00 10° N visible
30 Oct 5.7 19:39:54 10° SW 19:43:23 18° W 19:46:53 10° NW visible
31 Oct 6.1 06:09:33 10° NE 06:12:58 18° E 06:16:23 10° SE visible
31 Oct 4.3 19:01:36 10° SSW 19:06:21 41° W 19:11:09 10° NNW visible
